Skip Page Navigation
NASA JPL Caltech
NASA Logo - Jet Propulsion Laboratory + View the NASA Portal
+ Near-Earth Object (NEO) Program
Search JPL
JPL Home Earth Solar System Stars & Galaxies Technology
JPL Solar System Dynamics
BODIES ORBITS EPHEMERIDES TOOLS PHYSICAL DATA DISCOVERY FAQ SITE MAP
JPL Small-Body Database Browser
Search: [ help ]  
(2005 VX3)
Classification: TransNeptunian Object          SPK-ID: 3299811
Ephemeris | Orbit Diagram | Orbital Elements | Physical Parameters ]

[ show orbit diagram ]
Orbital Elements at Epoch 2457000.5 (2014-Dec-09.0) TDB
Reference: JPL 2 (heliocentric ecliptic J2000)
 Element Value Uncertainty (1-sigma)   Units 
e .9973189955076449 0.00055972  
a 1542.05691862033 322.04 AU
q 4.13426152628835 0.00027179 AU
i 112.458988812837 0.0052217 deg
node 255.1921146558246 0.0010447 deg
peri 196.5399663787138 0.0073891 deg
M .05297189381418486 0.016593 deg
tp 2453745.941875528596
(2006-Jan-10.44187553)
0.049433 JED
period 22118161.92412517
60556.23
6.9287e+06
1.897e+04
d
yr
n 1.627621685902089E-5 5.0987e-06 deg/d
Q 3079.979575714372 643.22 AU
  Orbit Determination Parameters
   # obs. used (total)      50  
   data-arc span      81 days  
   first obs. used      2005-11-01  
   last obs. used      2006-01-21  
   planetary ephem.      DE431  
   SB-pert. ephem.      SB431-BIG16  
   condition code      4  
   fit RMS      .76841  
   data source      ORB  
   producer      Otto Matic  
   solution date      2014-Jun-13 05:37:30  

Additional Information
 Earth MOID = 3.17835 AU 
 T_jup = -0.959 
[ show covariance matrix ]

Ephemeris | Orbit Diagram | Orbital Elements | Physical Parameters ]

Physical Parameter Table
Parameter Symbol Value Units Sigma Reference Notes
absolute magnitude H 14.1 mag n/a MPO97960  
Ephemeris | Orbit Diagram | Orbital Elements | Physical Parameters ]
ABOUT SSD CREDITS/AWARDS PRIVACY/COPYRIGHT GLOSSARY LINKS
FirstGov 2014-Oct-02 02:21 UT
(server date/time)  
NASA Home Page
Site Manager:   Donald K. Yeomans
Webmaster  Alan B. Chamberlin